GW0552 Weather Reports


time (UTC)temp
F
wind
direction
speed
knots
gust
knots
rain 1hr
in
rain 24hr
in
rain mn
in
humidity
%
barometer
mb
20260901062608 72 123 0.0 0.0 0.00 0.00 0.00 99 1014.4
20260901062103 72 121 0.0 0.0 0.00 0.00 0.00 99 1014.2
20260901061600 72 123 0.0 0.0 0.00 0.00 0.00 99 1014.2
20260901061054 72 120 0.0 0.0 0.00 0.00 0.00 99 1014.3
20260901060549 72 124 0.0 0.0 0.00 0.00 0.00 99 1014.4
20260901060044 72 122 0.0 0.0 0.00 0.00 0.00 99 1014.5
20260901055539 72 119 0.0 0.0 0.00 0.00 0.00 99 1014.6
20260901055036 72 122 0.0 0.0 0.00 0.00 0.00 99 1014.6
20260901054533 72 126 0.0 0.0 0.00 0.00 0.00 99 1014.6
20260901054028 73 122 0.0 0.0 0.00 0.00 0.00 99 1014.4
20260901053525 73 120 0.0 0.0 0.00 0.00 0.00 99 1014.6
20260901053020 73 124 0.0 0.0 0.00 0.00 0.00 99 1014.7
20260901052515 73 124 0.0 0.0 0.00 0.00 0.00 99 1014.9
20260901052014 73 123 0.0 0.0 0.00 0.00 0.00 99 1014.8
20260901051509 73 122 0.0 0.0 0.00 0.00 0.00 99 1014.9
20260901051008 73 122 0.0 0.0 0.00 0.00 0.00 99 1014.9
20260901050504 73 122 0.0 0.0 0.00 0.00 0.00 99 1014.9
20260901045958 73 119 0.0 0.0 0.00 0.00 0.00 99 1014.7
20260901045454 73 120 0.0 0.0 0.00 0.00 0.00 99 1014.8
20260901044948 73 120 0.0 0.0 0.00 0.00 0.00 99 1014.9
20260901044444 73 120 0.0 0.0 0.00 0.00 0.00 99 1014.9
20260901043940 73 122 0.0 0.0 0.00 0.00 0.00 99 1015.0
20260901043436 73 122 0.0 0.0 0.00 0.00 0.00 99 1014.9
20260901042936 74 125 0.0 0.0 0.00 0.00 0.00 99 1014.8
20260901042436 74 123 0.0 0.0 0.00 0.00 0.00 99 1014.9
20260901041931 74 124 0.0 0.0 0.00 0.00 0.00 99 1015.0
20260901041426 74 124 0.0 0.0 0.00 0.00 0.00 99 1015.1
20260901040925 74 122 0.0 0.0 0.00 0.00 0.00 99 1015.2
20260901040420 74 124 0.0 0.0 0.00 0.00 0.00 99 1015.1
20260901035919 74 124 0.0 0.0 0.00 0.00 0.00 99 1015.0
20260901035418 75 124 0.0 0.0 0.00 0.00 0.00 99 1015.1
20260901034916 75 127 0.0 0.0 0.00 0.00 0.00 99 1015.1
20260901034023 75 122 0.0 0.0 0.00 0.00 0.00 99 1015.2
20260901033521 75 122 0.0 0.0 0.00 0.00 0.00 99 1015.2
20260901033021 75 122 0.0 0.0 0.00 0.00 0.00 99 1015.2
20260901032515 75 127 0.9 0.9 0.00 0.00 0.00 99 1014.9
20260901032015 75 128 0.9 0.9 0.00 0.00 0.00 99 1015.2
20260901031511 75 130 0.9 1.7 0.00 0.00 0.00 99 1015.2
20260901031006 76 125 0.0 0.0 0.00 0.00 0.00 99 1015.4
20260901030501 76 120 0.0 0.0 0.00 0.00 0.00 99 1015.3
20260901030000 76 125 0.0 0.0 0.00 0.00 0.00 99 1015.1
20260901025455 76 126 0.0 0.0 0.00 0.00 0.00 99 1015.1
20260901024954 76 125 0.0 0.0 0.00 0.00 0.00 99 1015.0
20260901024450 76 126 0.9 0.9 0.00 0.00 0.00 99 1015.4
20260901023948 76 125 0.0 0.0 0.00 0.00 0.00 99 1015.1
20260901023443 77 124 0.0 0.0 0.00 0.00 0.00 99 1015.2
20260901022938 77 125 0.9 0.9 0.00 0.00 0.00 99 1015.2
20260901022434 77 123 0.0 0.9 0.00 0.00 0.00 99 1015.4
20260901021928 77 125 0.0 0.0 0.00 0.00 0.00 99 1015.3
20260901021424 77 124 0.0 0.0 0.00 0.00 0.00 99 1015.2
20260901020919 77 124 0.0 0.0 0.00 0.00 0.00 99 1015.1
20260901020415 77 122 0.0 0.0 0.00 0.00 0.00 99 1015.2
20260901015913 77 122 0.0 0.0 0.00 0.00 0.00 99 1015.0
20260901015410 77 123 0.0 0.0 0.00 0.00 0.00 99 1015.1
20260901014909 77 123 0.0 0.0 0.00 0.00 0.00 99 1015.0
20260901014406 77 124 0.0 0.0 0.00 0.00 0.00 99 1015.2
20260901013901 78 125 0.0 0.0 0.00 0.00 0.00 99 1014.9
20260901013356 78 126 0.0 0.0 0.00 0.00 0.00 99 1014.8
20260901012852 78 124 0.0 0.0 0.00 0.00 0.00 99 1014.9
20260901012347 78 123 0.0 0.0 0.00 0.00 0.00 98 1014.6
20260901011842 78 124 0.9 0.9 0.00 0.00 0.00 98 1014.8
20260901011338 78 126 0.0 0.0 0.00 0.00 0.00 98 1014.7
20260901010831 78 125 0.0 0.9 0.00 0.00 0.00 98 1014.5
20260901010326 78 124 0.0 0.0 0.00 0.00 0.00 97 1014.6
20260901005825 78 123 0.0 0.0 0.00 0.00 0.00 96 1014.4
20260901005320 78 123 0.0 0.0 0.00 0.00 0.00 96 1014.4
20260901004820 79 124 0.0 0.0 0.00 0.00 0.00 96 1014.4
20260901004314 79 124 0.0 0.0 0.00 0.00 0.00 96 1014.5
20260901003814 79 124 0.0 0.0 0.00 0.00 0.00 96 1014.1
20260901003309 79 125 0.0 0.0 0.00 0.00 0.00 96 1014.1
20260901002803 79 126 0.0 0.0 0.00 0.00 0.00 96 1014.1
20260901002258 80 125 0.0 0.0 0.00 0.00 0.00 95 1013.8
20260901001752 80 125 0.0 0.0 0.00 0.00 0.00 95 1013.8
20260901001248 80 126 0.0 0.0 0.00 0.00 0.00 95 1013.6
20260901000743 80 127 0.0 0.0 0.00 0.00 0.00 95 1013.7
20260901000241 80 126 0.0 0.0 0.00 0.00 0.00 94 1013.9
20260831235737 81 127 0.0 0.0 0.00 0.00 0.00 94 1013.8
20260831235233 81 126 0.0 0.0 0.00 0.00 0.00 93 1013.9
20260831234733 81 126 0.0 0.9 0.00 0.00 0.00 93 1014.0
20260831234233 81 126 0.0 0.9 0.00 0.00 0.00 93 1013.8
20260831233728 82 127 0.0 0.0 0.00 0.00 0.00 92 1013.8
20260831233224 82 126 0.0 0.0 0.00 0.00 0.00 91 1013.9
20260831232723 82 127 0.9 0.9 0.00 0.00 0.00 91 1013.9
20260831232220 82 126 0.0 0.0 0.00 0.00 0.00 90 1013.8
20260831231716 83 124 0.0 0.9 0.00 0.00 0.00 90 1014.0
20260831231212 83 127 0.9 0.9 0.00 0.00 0.00 89 1013.9
20260831230712 84 126 0.9 1.7 0.00 0.00 0.00 88 1014.0
20260831230207 84 124 0.9 0.9 0.00 0.00 0.00 87 1013.8
20260831225706 84 131 0.9 0.9 0.00 0.00 0.00 88 1013.8
20260831225201 84 132 0.9 0.9 0.00 0.00 0.00 87 1014.1
20260831224656 84 128 0.9 0.9 0.00 0.00 0.00 87 1014.1
20260831224152 84 130 0.9 1.7 0.00 0.00 0.00 87 1014.2
20260831223647 84 128 0.9 0.9 0.00 0.00 0.00 86 1014.1
20260831223144 84 127 0.0 0.0 0.00 0.00 0.00 84 1014.2
20260831222639 84 128 0.0 0.0 0.00 0.00 0.00 83 1014.3
20260831222135 85 127 0.0 0.0 0.00 0.00 0.00 82 1014.1
20260831221630 86 127 0.0 0.0 0.00 0.00 0.00 81 1014.3
20260831221125 87 127 0.9 0.9 0.00 0.00 0.00 78 1014.1
20260831220620 88 127 0.9 0.9 0.00 0.00 0.00 76 1014.2
20260831220115 88 127 0.9 0.9 0.00 0.00 0.00 75 1014.5
20260831215611 88 128 0.9 1.7 0.00 0.00 0.00 70 1014.4
20260831215106 89 131 0.9 0.9 0.00 0.00 0.00 72 1014.5
20260831214604 89 129 0.0 0.0 0.00 0.00 0.00 70 1014.5
20260831214100 90 128 1.7 1.7 0.00 0.00 0.00 68 1014.6
20260831213556 90 135 2.6 2.6 0.00 0.00 0.00 68 1014.7
20260831213051 90 136 0.9 0.9 0.00 0.00 0.00 70 1014.6
20260831212547 89 124 1.7 1.7 0.00 0.00 0.00 70 1014.8
20260831212043 89 125 0.9 0.9 0.00 0.00 0.00 69 1014.8
20260831211537 89 124 3.5 5.2 0.00 0.00 0.00 69 1014.6
20260831211036 88 130 0.9 0.9 0.00 0.00 0.00 73 1014.8
20260831210531 88 138 2.6 2.6 0.00 0.00 0.00 74 1014.7
20260831210027 89 127 4.3 4.3 0.00 0.00 0.00 71 1014.8
20260831205522 89 141 3.5 4.3 0.00 0.00 0.00 73 1014.6
20260831205018 89 127 2.6 2.6 0.00 0.00 0.00 69 1014.9
20260831204518 89 124 0.9 0.9 0.00 0.00 0.00 72 1014.7
20260831204016 89 134 2.6 2.6 0.00 0.00 0.00 73 1014.6
20260831203511 89 125 0.9 1.7 0.00 0.00 0.00 76 1015.1
20260831203009 90 138 0.0 0.0 0.00 0.00 0.00 75 1015.1
20260831202504 90 129 0.0 0.0 0.00 0.00 0.00 70 1015.0
20260831202003 90 122 0.0 0.0 0.00 0.00 0.00 68 1015.1
20260831201502 90 129 0.9 0.9 0.00 0.00 0.00 64 1015.1
20260831200958 91 109 1.7 1.7 0.00 0.00 0.00 64 1015.1
20260831200453 90 137 1.7 1.7 0.00 0.00 0.00 64 1014.9
20260831195948 91 109 0.0 0.0 0.00 0.00 0.00 70 1014.9
20260831195444 90 124 0.0 0.0 0.00 0.00 0.00 69 1015.2
20260831194938 89 133 0.0 0.9 0.00 0.00 0.00 67 1015.2
20260831194434 90 139 0.9 1.7 0.00 0.00 0.00 70 1015.3
20260831193933 89 162 2.6 2.6 0.00 0.00 0.00 69 1015.2
20260831193429 90 112 0.9 0.9 0.00 0.00 0.00 67 1015.5
20260831192924 91 103 1.7 2.6 0.00 0.00 0.00 64 1015.4
20260831192419 93 122 0.0 0.0 0.00 0.00 0.00 62 1015.5
20260831191914 92 122 0.9 0.9 0.00 0.00 0.00 63 1015.2
20260831191410 92 139 1.7 2.6 0.00 0.00 0.00 63 1015.8
20260831190906 91 124 1.7 2.6 0.00 0.00 0.00 64 1015.7
20260831190406 91 154 2.6 2.6 0.00 0.00 0.00 67 1015.7
20260831185905 91 131 1.7 1.7 0.00 0.00 0.00 65 1015.8
20260831185401 90 97 1.7 1.7 0.00 0.00 0.00 65 1015.8
20260831184900 90 129 4.3 5.2 0.00 0.00 0.00 69 1015.9
20260831184355 90 122 0.0 0.0 0.00 0.00 0.00 68 1016.0
20260831183850 90 130 1.7 1.7 0.00 0.00 0.00 69 1015.8
20260831183350 89 110 1.7 1.7 0.00 0.00 0.00 69 1015.9
20260831182849 90 133 2.6 4.3 0.00 0.00 0.00 72 1016.2
20260831182345 89 112 3.5 4.3 0.00 0.00 0.00 69 1016.1
20260831181840 90 119 0.9 0.9 0.00 0.00 0.00 69 1016.3
20260831181335 89 136 0.9 0.9 0.00 0.00 0.00 74 1016.4
20260831180830 89 132 1.7 2.6 0.00 0.00 0.00 68 1016.3
20260831180325 89 125 1.7 1.7 0.00 0.00 0.00 71 1016.4
20260831175824 89 128 0.9 0.9 0.00 0.00 0.00 74 1016.2
20260831175320 88 140 3.5 4.3 0.00 0.00 0.00 75 1016.5
20260831174816 87 121 2.6 2.6 0.00 0.00 0.00 74 1016.5
20260831174312 87 124 2.6 2.6 0.00 0.00 0.00 75 1016.6
20260831173811 87 155 3.5 4.3 0.00 0.00 0.00 77 1016.6
20260831173305 87 101 1.7 1.7 0.00 0.00 0.00 78 1016.5
20260831172800 87 152 4.3 5.2 0.00 0.00 0.00 78 1016.9
20260831172255 87 141 2.6 2.6 0.00 0.00 0.00 76 1016.7
20260831171755 87 134 1.7 1.7 0.00 0.00 0.00 80 1016.8
20260831171253 86 147 2.6 2.6 0.00 0.00 0.00 81 1016.8
20260831170749 85 133 2.6 2.6 0.00 0.00 0.00 80 1016.8
20260831170245 85 134 1.7 1.7 0.00 0.00 0.00 82 1016.9
20260831165741 86 124 1.7 1.7 0.00 0.00 0.00 78 1016.7
20260831165237 85 113 0.9 1.7 0.00 0.00 0.00 80 1017.0
20260831164733 85 131 1.7 1.7 0.00 0.00 0.00 81 1016.9
20260831164229 84 126 0.0 0.9 0.00 0.00 0.00 87 1016.9
20260831163724 83 114 0.0 0.0 0.00 0.00 0.00 88 1017.1
20260831163220 84 125 1.7 1.7 0.00 0.00 0.00 84 1016.9
20260831162718 83 131 3.5 4.3 0.00 0.00 0.00 84 1017.0
20260831162217 82 127 0.9 0.9 0.00 0.00 0.00 89 1017.2
20260831161712 81 118 2.6 2.6 0.00 0.00 0.00 88 1017.0
20260831161209 81 138 0.9 1.7 0.00 0.00 0.00 89 1016.9
20260831160708 81 125 2.6 2.6 0.00 0.00 0.00 87 1016.9
20260831160204 81 126 0.0 0.9 0.00 0.00 0.00 92 1016.9
20260831155703 80 125 2.6 2.6 0.00 0.00 0.00 87 1017.0
20260831155159 80 119 2.6 2.6 0.00 0.00 0.00 91 1017.1
20260831154655 79 116 2.6 2.6 0.00 0.00 0.00 92 1017.3
20260831154150 79 125 0.9 1.7 0.00 0.00 0.00 93 1017.0
20260831153649 78 111 0.9 1.7 0.00 0.00 0.00 94 1017.0
20260831153145 78 106 3.5 4.3 0.00 0.00 0.00 93 1017.0
20260831152640 77 123 1.7 1.7 0.00 0.00 0.00 95 1017.2
20260831152137 77 119 1.7 2.6 0.00 0.00 0.00 97 1017.0
20260831151636 76 129 0.9 0.9 0.00 0.00 0.00 99 1017.2
20260831151131 76 117 0.9 0.9 0.00 0.00 0.00 99 1017.2
20260831150626 75 119 0.9 1.7 0.00 0.00 0.00 99 1017.2
20260831150121 75 119 0.0 0.0 0.00 0.00 0.00 99 1017.0
20260831145615 75 123 0.0 0.0 0.00 0.00 0.00 99 1017.2
20260831145111 75 124 0.9 1.7 0.00 0.00 0.00 99 1017.2
20260831144602 75 129 0.9 0.9 0.00 0.00 0.00 99 1017.3
20260831144057 75 125 0.9 0.9 0.00 0.00 0.00 99 1017.0
20260831143551 75 133 0.0 0.0 0.00 0.00 0.00 99 1017.1
20260831143046 75 122 0.0 0.0 0.00 0.00 0.00 99 1016.9
20260831142543 74 118 0.0 0.0 0.00 0.00 0.00 99 1017.0
20260831142043 74 113 0.0 0.0 0.00 0.00 0.00 99 1016.8
20260831141542 74 122 0.0 0.0 0.00 0.00 0.00 99 1016.6
20260831141038 74 125 0.0 0.0 0.00 0.00 0.00 99 1016.8
20260831140537 74 118 0.0 0.0 0.00 0.00 0.00 99 1016.7
20260831140037 74 119 0.0 0.0 0.00 0.00 0.00 99 1016.8
20260831135535 74 127 0.0 0.0 0.00 0.00 0.00 99 1016.9
20260831135031 74 122 0.0 0.0 0.00 0.00 0.00 99 1016.8
20260831134527 74 123 0.0 0.0 0.00 0.00 0.00 99 1016.7
20260831134027 74 125 0.0 0.0 0.00 0.00 0.00 99 1016.6
20260831133521 73 124 0.0 0.0 0.00 0.00 0.00 99 1016.8
20260831133021 73 126 0.0 0.0 0.00 0.00 0.00 99 1016.8
20260831132425 72 124 0.0 0.0 0.00 0.00 0.00 99 1016.7
20260831131924 72 124 0.0 0.0 0.00 0.00 0.00 99 1016.7
20260831131419 72 122 0.0 0.0 0.00 0.00 0.00 99 1016.8
20260831130915 72 122 0.0 0.0 0.00 0.00 0.00 99 1016.8
20260831130411 71 122 0.0 0.0 0.00 0.00 0.00 99 1016.8
20260831125910 71 123 0.0 0.0 0.00 0.00 0.00 99 1016.7
20260831125405 71 123 0.0 0.0 0.00 0.00 0.00 99 1016.7
20260831124900 71 127 0.0 0.0 0.00 0.00 0.00 99 1016.7
20260831124356 71 124 0.0 0.0 0.00 0.00 0.00 99 1016.6
20260831123851 70 120 0.0 0.0 0.00 0.00 0.00 99 1016.5
20260831123350 70 123 0.0 0.0 0.00 0.00 0.00 99 1016.6
20260831122845 70 128 0.0 0.0 0.00 0.00 0.00 99 1016.5
20260831122340 70 122 0.0 0.0 0.00 0.00 0.00 99 1016.3
20260831121840 70 122 0.0 0.0 0.00 0.00 0.00 99 1016.6
20260831121336 70 123 0.0 0.0 0.00 0.00 0.00 99 1016.6
20260831120832 69 123 0.0 0.0 0.00 0.00 0.00 99 1016.7
20260831120326 69 122 0.0 0.0 0.00 0.00 0.00 99 1016.4
20260831115821 69 122 0.0 0.0 0.00 0.00 0.00 99 1016.4
20260831115318 69 124 0.0 0.0 0.00 0.00 0.00 99 1016.5
20260831114817 69 122 0.0 0.0 0.00 0.00 0.00 99 1016.5
20260831114316 69 122 0.0 0.0 0.00 0.00 0.00 99 1016.5
20260831113812 69 123 0.0 0.0 0.00 0.00 0.00 99 1016.3
20260831113312 69 123 0.0 0.0 0.00 0.00 0.00 99 1016.5
20260831112806 68 122 0.0 0.0 0.00 0.00 0.00 99 1016.4
20260831112301 68 122 0.0 0.0 0.00 0.00 0.00 99 1016.3
20260831111756 68 121 0.0 0.0 0.00 0.00 0.00 99 1016.3
20260831111253 68 122 0.0 0.0 0.00 0.00 0.00 99 1016.1
20260831110749 68 126 0.0 0.0 0.00 0.00 0.00 99 1015.9
20260831110243 68 125 0.0 0.0 0.00 0.00 0.00 99 1015.9
20260831105741 68 122 0.0 0.0 0.00 0.00 0.00 99 1016.0
20260831105237 68 121 0.0 0.0 0.00 0.00 0.00 99 1016.0
20260831104732 68 123 0.0 0.0 0.00 0.00 0.00 99 1016.0
20260831104229 68 125 0.9 0.9 0.00 0.00 0.00 99 1015.7
20260831103729 68 128 1.7 1.7 0.00 0.00 0.00 99 1015.7
20260831103225 68 125 0.0 0.0 0.00 0.00 0.00 99 1015.7
20260831102724 68 123 0.0 0.0 0.00 0.00 0.00 99 1015.8
20260831102219 68 124 0.0 0.0 0.00 0.00 0.00 99 1015.8
20260831101714 68 123 0.0 0.0 0.00 0.00 0.00 99 1015.7
20260831101210 68 123 0.0 0.0 0.00 0.00 0.00 99 1015.7
20260831100706 68 123 0.0 0.0 0.00 0.00 0.00 99 1015.7
20260831100202 68 123 0.0 0.0 0.00 0.00 0.00 99 1015.5
20260831095700 68 123 0.0 0.0 0.00 0.00 0.00 99 1015.7
20260831095155 68 126 0.9 0.9 0.00 0.00 0.00 99 1015.5
20260831094650 68 124 0.0 0.0 0.00 0.00 0.00 99 1015.5
20260831094146 68 124 0.0 0.0 0.00 0.00 0.00 99 1015.5
20260831093641 68 123 0.0 0.0 0.00 0.00 0.00 99 1015.7
20260831093138 68 122 0.0 0.0 0.00 0.00 0.00 99 1015.8
20260831092634 68 122 0.0 0.0 0.00 0.00 0.00 99 1015.8
20260831092129 68 122 0.0 0.0 0.00 0.00 0.00 99 1015.7
20260831091628 68 122 0.0 0.0 0.00 0.00 0.00 99 1015.4
20260831091124 68 122 0.0 0.0 0.00 0.00 0.00 99 1015.8
20260831090619 68 122 0.0 0.0 0.00 0.00 0.00 99 1015.4
20260831090115 68 122 0.0 0.0 0.00 0.00 0.00 99 1015.5
20260831085610 68 122 0.0 0.0 0.00 0.00 0.00 99 1015.4
20260831085106 68 121 0.0 0.0 0.00 0.00 0.00 99 1015.5
20260831084602 68 122 0.0 0.0 0.00 0.00 0.00 99 1015.5
20260831084058 68 121 0.0 0.0 0.00 0.00 0.00 99 1015.5
20260831083554 68 123 0.0 0.0 0.00 0.00 0.00 99 1015.5
20260831083048 68 123 0.0 0.0 0.00 0.00 0.00 99 1015.7
20260831082547 69 122 0.0 0.0 0.00 0.00 0.00 99 1015.7
20260831082043 69 123 0.0 0.0 0.00 0.00 0.00 99 1015.4
20260831081538 69 123 0.0 0.0 0.00 0.00 0.00 99 1015.4
20260831081034 68 122 0.0 0.0 0.00 0.00 0.00 99 1015.2
20260831080534 69 122 0.0 0.0 0.00 0.00 0.00 99 1015.3
20260831080030 68 122 0.0 0.0 0.00 0.00 0.00 99 1015.2
20260831075525 69 124 0.0 0.0 0.00 0.00 0.00 99 1015.1
20260831075021 69 124 0.0 0.0 0.00 0.00 0.00 99 1015.2
20260831074520 69 123 0.0 0.0 0.00 0.00 0.00 99 1015.0
20260831072724 69 122 0.0 0.0 0.00 0.00 0.00 99 1015.1
20260831072221 69 122 0.0 0.0 0.00 0.00 0.00 99 1015.1
20260831071720 69 122 0.0 0.0 0.00 0.00 0.00 99 1015.1
20260831070534 69 122 0.0 0.0 0.00 0.00 0.00 99 1015.2
20260831070029 69 122 0.0 0.0 0.00 0.00 0.00 99 1015.2
20260831065526 70 122 0.0 0.0 0.00 0.00 0.00 99 1015.3
20260831065021 70 122 0.0 0.0 0.00 0.00 0.00 99 1015.3
20260831063809 70 122 0.0 0.0 0.00 0.00 0.00 99 1015.3
20260831063303 70 122 0.0 0.0 0.00 0.00 0.00 99 1015.3